Location: Hawks Ness
(60.2333°N, 1.1667°W)
Time: 16:56:36
(UTC+00:00)

Lacrosse 4 Rocket - Pass Details

Date: 22 October 2019
Orbit: 544 x 615 km, 68.0° (Epoch: 13 November)

Event Time Altitude Azimuth Distance (km) Brightness Sun altitude
Exits shadow 05:37:15 11° 309° (NW) 1,796 3.5 -11.0°
Maximum altitude 05:40:45 29° 10° (N) 1,027 2.8 -10.5°
Drops below altitude 10° 05:44:20 10° 72° (ENE) 1,824 5.2 -10.1°
Sets 05:46:46 0° 84° (E) 2,720 6.8 -9.8°
